Regional Weather Roundup
Issued by NWS

Home | Current Version | Previous Version | Graphics & Text | Print | Product List | Glossary On
Versions: 1 2 3 4 5 6 7 8 9 10 11 12 13 14 15 16 17 18 19 20 21 22 23 24 25 26 27 28 29 30 31 32 33 34 35 36 37 38 39 40 41 42 43 44 45 46 47 48 49 50
000
ASUS43 KOAX 020802
RWRNE

WEATHER ROUNDUP FOR NEBRASKA
NATIONAL WEATHER SERVICE OMAHA NE
200 AM CST MON MAR 02 2015

NOTES: SATELLITE DATA IS BEING USED TO AUGMENT CLOUD COVER ABOVE
       12000 FEET.
       "FAIR" INDICATES FEW OR NO CLOUDS BELOW 12,000 FEET WITH NO
       SIGNIFICANT WEATHER AND/OR OBSTRUCTIONS TO VISIBILITY.

  * THESE STATIONS DO NOT REPORT WEATHER SUCH AS RAIN...SNOW OR FOG.

NEZ001>004-019>022-054>056-020900-
NEBRASKA PANHANDLE

CITY           SKY/WX    TMP DP  RH WIND       PRES   REMARKS
SCOTTSBLUFF    MOCLDY    26  18  71 SE9       30.19F WCI  17
ALLIANCE       MOCLDY    24  13  62 S13       30.20F WCI  12
CHADRON        MOCLDY    23  12  62 S6        30.22F WCI  16
KIMBALL        PTCLDY    22  18  83 S8        30.16F WCI  13
SIDNEY         PTCLDY    24  16  71 S10       30.20F WCI  14
$$

NEZ057>060-069>072-079>082-020900-
SOUTHWEST NEBRASKA

CITY           SKY/WX    TMP DP  RH WIND       PRES   REMARKS
NORTH PLATTE   PTCLDY    23  12  62 E10       30.34F WCI  12
IMPERIAL         N/A     27  18  69 SE6       30.30F WCI  20
LEXINGTON      PTCLDY    29  13  52 E8        30.38F WCI  21
MCCOOK         CLOUDY    32  18  56 S5        30.36F WCI  27
$$

NEZ005>010-023>029-035>040-094-020900-
NORTH CENTRAL NEBRASKA

CITY           SKY/WX    TMP DP  RH WIND       PRES   REMARKS
VALENTINE      PTCLDY    15   9  76 CALM      30.34F
AINSWORTH      PTCLDY    16  10  76 S6        30.35S WCI   7
BROKEN BOW     MOCLDY    20  11  68 CALM      30.38F
ORD            PTCLDY    18   9  68 CALM      30.41F
$$

NEZ041-046>049-061>064-073>077-083>087-020900-
SOUTH CENTRAL NEBRASKA

CITY           SKY/WX    TMP DP  RH WIND       PRES   REMARKS
GRAND ISLAND   PTCLDY    25  15  66 E6        30.44S WCI  18
HASTINGS       MOCLDY    27  13  55 SE3       30.42F
HEBRON         CLOUDY    27  22  83 CALM      30.46F
KEARNEY *      MOCLDY    25  12  58 CALM      30.42F
$$

NEZ011>018-030>034-042>045-020900-
NORTHEAST NEBRASKA

CITY           SKY/WX    TMP DP  RH WIND       PRES   REMARKS
NORFOLK        PTCLDY    16  10  77 CALM      30.45S
BLAIR          MOCLDY    26  15  65 E3        30.47S
COLUMBUS *     MOCLDY    19   7  58 NE3       30.48R
FREMONT        MOCLDY    23  16  75 CALM      30.48S
TEKAMAH        PTCLDY    18  12  77 CALM      30.50R
$$

NEZ050>053-065>068-078-088>093-020900-
SOUTHEAST NEBRASKA

CITY           SKY/WX    TMP DP  RH WIND       PRES   REMARKS
LINCOLN        MOCLDY    26  15  63 N5        30.51R WCI  20
OMAHA EPPLEY   CLOUDY    23  16  74 CALM      30.50R
FALLS CITY     CLOUDY    25  20  81 CALM      30.50R
$$

NEZ044-045-051>053-067-020900-
OMAHA AREA

CITY           SKY/WX    TMP DP  RH WIND       PRES   REMARKS
OMAHA EPPLEY   CLOUDY    23  16  74 CALM      30.50R
BLAIR          MOCLDY    26  15  65 E3        30.47S
FREMONT        MOCLDY    23  16  75 CALM      30.48S
OFFUTT AFB     CLOUDY    26  17  67 NE3       30.49R
$$


USA.gov is the U.S. government's official web portal to all federal, state and local government web resources and services.